This is the latest recevied weather packets stored in our database for station/object EA3BNF-1. If no packets are shown the sender has not sent any weather packets the latest 10 day(s).
| Time | Temp. | Humidity | Pressure | Rain* | Wind** | Luminosity | Snow |
|---|---|---|---|---|---|---|---|
| 1778011137 | 18.89° C | 63% | 1011.2 hPa | - | - | - | - |
| 1778010478 | 18.89° C | 63% | 1010.9 hPa | - | - | - | - |
| 1778009822 | 18.89° C | 62% | 1010.6 hPa | - | - | - | - |
| 1778009166 | 18.89° C | 61% | 1010.4 hPa | - | - | - | - |
| 1778008511 | 18.89° C | 61% | 1010.6 hPa | - | - | - | - |
| 1778007856 | 18.89° C | 61% | 1010.5 hPa | - | - | - | - |
| 1778007199 | 18.89° C | 60% | 1010.6 hPa | - | - | - | - |
| 1778006544 | 18.33° C | 61% | 1010.6 hPa | - | - | - | - |
| 1778005888 | 18.33° C | 62% | 1010.6 hPa | - | - | - | - |
| 1778005233 | 18.33° C | 62% | 1010.6 hPa | - | - | - | - |
| 1778004577 | 18.33° C | 62% | 1010.4 hPa | - | - | - | - |
| 1778003921 | 18.89° C | 62% | 1010.6 hPa | - | - | - | - |
| 1778003266 | 18.89° C | 62% | 1010.6 hPa | - | - | - | - |
| 1778002610 | 19.44° C | 61% | 1010.5 hPa | - | - | - | - |
| 1778001955 | 19.44° C | 59% | 1010.4 hPa | - | - | - | - |
| 1778001299 | 18.89° C | 60% | 1010.3 hPa | - | - | - | - |
| 1778000643 | 18.89° C | 60% | 1010.2 hPa | - | - | - | - |
| 1777999988 | 19.44° C | 62% | 1010.4 hPa | - | - | - | - |
| 1777999332 | 20.56° C | 61% | 1010.6 hPa | - | - | - | - |
| 1777998676 | 21.67° C | 58% | 1010.5 hPa | - | - | - | - |
| 1777998020 | 22.22° C | 56% | 1010.3 hPa | - | - | - | - |
| 1777997364 | 22.22° C | 57% | 1010.2 hPa | - | - | - | - |
| 1777996709 | 22.22° C | 57% | 1010.3 hPa | - | - | - | - |
| 1777996053 | 22.78° C | 57% | 1010.2 hPa | - | - | - | - |
| 1777995397 | 22.78° C | 57% | 1010.1 hPa | - | - | - | - |
* Rain since midnight (hover to see other rain measurements)
** Current wind speed in m/s (hover to see current wind gust speed)